Location: Detroit
(42.3310°N, 83.0460°W)
Time: 20:47:05
(UTC-04:00)

Tiangong - Visible Passes

Search period start: 12 April 2024 00:00
Search period end: 22 April 2024 00:00
Orbit: 367 x 378 km, 41.5° (Epoch: 12 April)

Date Brightness Start Highest point End Pass type
(mag) Time Alt. Az. Time Alt. Az. Time Alt. Az.
16 Apr 0.0 20:52:45 10° SSE 20:53:30 11° SSE 20:54:14 10° SE visible
17 Apr -1.1 21:23:22 10° SW 21:25:59 26° SSE 21:26:35 24° SE visible
18 Apr -2.0 21:55:39 10° WSW 21:58:24 51° S 21:58:24 51° S visible
19 Apr -1.5 20:52:08 10° SW 20:54:58 35° SSE 20:57:49 10° E visible
19 Apr -0.5 22:28:19 10° W 22:29:58 29° WSW 22:29:58 29° WSW visible
20 Apr -2.2 21:24:35 10° WSW 21:27:36 65° S 21:29:24 22° E visible
20 Apr 0.9 23:01:02 10° W 23:01:22 12° W 23:01:22 12° W visible
21 Apr -2.4 21:57:14 10° W 22:00:18 77° S 22:00:39 64° ESE visible
